Regional Weather Roundup
Issued by NWS

Home | Current Version | Previous Version | Text Only | Print | Product List | Glossary Off
Versions: 1 2 3 4 5 6 7 8 9 10 11 12 13 14 15 16 17 18 19 20 21 22 23 24 25 26 27 28 29 30 31 32 33 34 35 36 37 38 39 40 41 42 43 44 45 46 47 48 49 50

000
ASUS43 KFSD 301302
RWRSD

WEATHER ROUNDUP FOR SOUTH DAKOTA
NATIONAL WEATHER SERVICE SIOUX FALLS SD
800 AM CDT THU JUL 30 2015

NOTE: "FAIR" INDICATES FEW OR NO CLOUDS BELOW 12,000 FEET WITH NO
SIGNIFICANT WEATHER AND/OR OBSTRUCTIONS TO VISIBILITY.


SDZ001>005-009-010-012>017-301400-
NORTHWEST AND NORTH CENTRAL SOUTH DAKOTA

CITY           SKY/WX    TMP DP  RH WIND       PRES   REMARKS
BUFFALO          N/A     55  40  56 W6        30.16R
FAITH            N/A     59  46  62 NW6       30.20R
MOBRIDGE       SUNNY     63  58  83 CALM      30.13S
$$

SDZ012>016-024>037-041>051-057-063-072>074-301400-
SOUTHWEST AND SOUTH CENTRAL SOUTH DAKOTA

CITY           SKY/WX    TMP DP  RH WIND       PRES   REMARKS
RAPID CTY ARPT SUNNY     61  46  57 NW8       30.24S
PIERRE         SUNNY     62  52  69 CALM      30.14R
CUSTER         SUNNY     57  39  51 NW3       30.37R
ELLSWORTH AFB  SUNNY     60  47  63 W6        30.23R
PHILIP         SUNNY     57  52  83 W7        30.18R
PINE RIDGE     SUNNY     57  50  77 CALM      30.25R
WINNER         FAIR      67  53  61 W5        30.19R
$$

SDZ004>011-016>023-039-040-301400-
NORTHEAST SOUTH DAKOTA

CITY           SKY/WX    TMP DP  RH WIND       PRES   REMARKS
ABERDEEN       SUNNY     64  57  78 SW3       30.11S
WATERTOWN      SUNNY     66  57  72 CALM      30.13S
BROOKINGS      SUNNY     64  55  72 CALM      30.16R
SISSETON         N/A     69  56  62 NW3       30.07S
$$

SDZ017-020-022-023-036>040-048>070-301400-
SOUTHEAST SOUTH DAKOTA

CITY           SKY/WX    TMP DP  RH WIND       PRES   REMARKS
SIOUX FALLS    SUNNY     66  57  72 SW3       30.13S
HURON          SUNNY     63  56  78 NE5       30.13R
CHAMBERLAIN    SUNNY     63  59  87 CALM      30.15S
MITCHELL       SUNNY     65  60  84 CALM      30.13S
YANKTON        SUNNY     70  57  64 SW8       30.14R
$$

ABBREVIATIONS USED IN REMARKS
   TC - TEMPERATURE IN CELSIUS
  WCI - WIND CHILL INDEX
   HX - HEAT INDEX
  VSB - VISIBILITY



USA.gov is the U.S. government's official web portal to all federal, state and local government web resources and services.